2023/09/23 00:00:00,13.1,18.4
2023/09/23 00:10:00,13.2,18.4
2023/09/23 00:20:00,13.4,18.4
2023/09/23 00:30:00,13.7,18.7
2023/09/23 00:40:00,13.9,18.3
2023/09/23 00:50:00,13.7,18.2
2023/09/23 01:00:00,11.2,18.1
2023/09/23 01:10:00, 4.3,18.2
2023/09/23 01:20:00, 3.2,18.2
2023/09/23 01:30:00, 3.2,18.1
2023/09/23 01:40:00, 3.2,18.4
2023/09/23 01:50:00, 3.2,18.1
2023/09/23 02:00:00, 3.3,18.0
2023/09/23 02:10:00, 3.4,18.3
2023/09/23 02:20:00, 3.7,18.1
2023/09/23 02:30:00, 4.1,18.1
2023/09/23 02:40:00, 4.1,18.0
2023/09/23 02:50:00, 4.1,18.2
2023/09/23 03:00:00, 3.8,18.0
2023/09/23 03:10:00, 3.8,17.9
2023/09/23 03:20:00, 5.8,18.2
2023/09/23 03:30:00,13.1,18.0
2023/09/23 03:40:00,14.4,18.1
2023/09/23 03:50:00,15.0,18.0
2023/09/23 04:00:00,15.1,18.1
2023/09/23 04:10:00,14.6,17.9
2023/09/23 04:20:00,14.1,18.0
2023/09/23 04:30:00,13.7,18.0
2023/09/23 04:40:00,13.3,17.9
2023/09/23 04:50:00,13.1,18.1
2023/09/23 05:00:00,12.7,17.8
2023/09/23 05:10:00,12.3,17.9
2023/09/23 05:20:00,12.0,17.8
2023/09/23 05:30:00,11.8,17.9
2023/09/23 05:40:00,11.5,17.8
2023/09/23 05:50:00,11.3,18.0
2023/09/23 06:00:00,11.2,17.8
2023/09/23 06:10:00,11.0,17.9
2023/09/23 06:20:00,11.1,18.0
2023/09/23 06:30:00,11.0,18.1
2023/09/23 06:40:00,10.8,17.7
2023/09/23 06:50:00,10.6,17.9
2023/09/23 07:00:00,10.5,18.0
2023/09/23 07:10:00,10.6,18.0
2023/09/23 07:20:00,10.5,18.0
2023/09/23 07:30:00,10.4,18.7
2023/09/23 07:40:00,10.2,19.0
2023/09/23 07:50:00,10.3,19.3
2023/09/23 08:00:00,10.2,20.2
2023/09/23 08:10:00,10.5,20.4
2023/09/23 08:20:00,10.9,20.7
2023/09/23 08:30:00,11.6,20.8
2023/09/23 08:40:00,11.9,20.6
2023/09/23 08:50:00, 0.0,22.1
2023/09/23 09:00:00, 0.0,21.9
2023/09/23 09:10:00,---,22.8
2023/09/23 09:20:00, 0.0,24.0
2023/09/23 09:30:00, 0.3,24.2
2023/09/23 09:40:00, 0.2,24.4
2023/09/23 09:50:00, 0.2,24.0
2023/09/23 10:00:00, 0.3,23.3
2023/09/23 10:10:00, 0.4,24.3
2023/09/23 10:20:00, 0.3,22.8
2023/09/23 10:30:00, 0.3,22.6
2023/09/23 10:40:00, 0.3,22.4
2023/09/23 10:50:00, 0.4,21.6
2023/09/23 11:00:00, 0.2,24.2
2023/09/23 11:10:00, 0.2,24.4
2023/09/23 11:20:00, 0.1,25.6
2023/09/23 11:30:00, 0.1,25.0
2023/09/23 11:40:00, 0.3,23.7
2023/09/23 11:50:00, 0.3,23.3
2023/09/23 12:00:00, 0.3,23.8
2023/09/23 12:10:00, 0.4,24.0
2023/09/23 12:20:00, 0.3,24.2
2023/09/23 12:30:00, 0.4,24.0
2023/09/23 12:40:00, 0.4,23.3
2023/09/23 12:50:00, 0.4,23.4
2023/09/23 13:00:00, 0.4,23.2
2023/09/23 13:10:00, 0.4,23.0
2023/09/23 13:20:00, 0.4,23.7
2023/09/23 13:30:00, 0.3,23.6
2023/09/23 13:40:00, 0.3,23.7
2023/09/23 13:50:00, 0.3,23.0
2023/09/23 14:00:00, 0.3,23.0
2023/09/23 14:10:00, 0.2,23.9
2023/09/23 14:20:00, 0.2,23.5
2023/09/23 14:30:00, 0.1,23.7
2023/09/23 14:40:00, 0.1,24.3
2023/09/23 14:50:00, 0.1,25.0
2023/09/23 15:00:00, 0.2,24.1
2023/09/23 15:10:00,10.7,23.4
2023/09/23 15:20:00,12.2,24.0
2023/09/23 15:30:00,12.2,24.2
2023/09/23 15:40:00,12.6,23.2
2023/09/23 15:50:00,12.8,22.6
2023/09/23 16:00:00,12.9,22.3
2023/09/23 16:10:00,12.8,21.2
2023/09/23 16:20:00,12.7,21.2
2023/09/23 16:30:00,12.8,20.4
2023/09/23 16:40:00,12.9,21.5
2023/09/23 16:50:00,12.9,22.2
2023/09/23 17:00:00,12.8,21.3
2023/09/23 17:10:00,13.0,20.5
2023/09/23 17:20:00,13.1,20.2
2023/09/23 17:30:00,13.0,19.6
2023/09/23 17:40:00,13.0,19.1
2023/09/23 17:50:00,12.9,18.3
2023/09/23 18:00:00,12.7,18.2
2023/09/23 18:10:00,12.5,17.9
2023/09/23 18:20:00,12.4,17.8
2023/09/23 18:30:00,12.2,17.3
2023/09/23 18:40:00,12.1,17.1
2023/09/23 18:50:00,11.9,17.1
2023/09/23 19:00:00,11.8,16.9
2023/09/23 19:10:00,11.7,16.8
2023/09/23 19:20:00,11.6,16.5
2023/09/23 19:30:00,11.3,16.7
2023/09/23 19:40:00,11.1,16.6
2023/09/23 19:50:00,10.9,16.3
2023/09/23 20:00:00,10.9,16.3
2023/09/23 20:10:00,10.8,16.3
2023/09/23 20:20:00,10.8,16.2
2023/09/23 20:30:00,10.7,15.9
2023/09/23 20:40:00,10.7,16.0
2023/09/23 20:50:00,10.7,15.6
2023/09/23 21:00:00,10.8,16.0
2023/09/23 21:10:00,10.8,16.1
2023/09/23 21:20:00,10.8,16.0
2023/09/23 21:30:00,10.9,15.9
2023/09/23 21:40:00,11.1,16.1
2023/09/23 21:50:00,11.2,15.8
2023/09/23 22:00:00,11.3,15.7
2023/09/23 22:10:00,11.5,15.7
2023/09/23 22:20:00,11.7,15.5
2023/09/23 22:30:00,11.8,15.6
2023/09/23 22:40:00,12.0,15.5
2023/09/23 22:50:00,12.1,15.6
2023/09/23 23:00:00,12.2,15.6
2023/09/23 23:10:00,12.4,15.4
2023/09/23 23:20:00,12.6,15.4
2023/09/23 23:30:00,12.8,15.4
2023/09/23 23:40:00,13.1,15.6
2023/09/23 23:50:00,13.2,15.5
